1321488028386,184.588
1321488088386,184.997
1321488148386,184.440
1321488208386,184.770
1321488268386,184.629
1321488328386,184.760
1321488388386,184.801
1321488448386,184.723
1321488508386,184.622
1321488568386,184.800
1321488628386,184.813
1321488688386,184.682
1321488748386,184.951
1321488808386,184.351
1321488868386,185.026
1321488928386,184.829
1321488988386,184.508
1321489048386,184.597
1321489108386,184.686
1321489168386,185.002
1321489228386,185.179
1321489288386,184.714
1321489348386,184.645
1321489408386,184.832
1321489468386,184.763
1321489528386,184.918
1321489588386,185.008
1321489648386,185.580
1321489708386,185.265
1321489768386,185.124
1321489828386,185.049
1321489888386,184.733
1321489948386,185.142
1321490008386,185.202
1321490068386,185.075
1321490128386,185.116
1321490188386,185.166
1321490248386,185.193
1321490308386,184.985
1321490368386,185.208
1321490428386,185.481
1321490488386,185.260
1321490548386,185.201
1321490608386,185.785
1321490668386,185.683
1321490728386,185.556
1321490788386,185.326
1321490848386,185.728
1321490908386,185.550
1321490968386,185.221
1321491028386,185.584
1321491088386,185.522
1321491148386,185.472
1321491208386,185.677
1321491268386,185.839
1321491328386,185.686
1321491388386,185.936
1321491448386,185.838
1321491508386,185.545
1321491568386,185.729
1321491628411,185.707
1321491688411,185.734
1321491748411,186.037
1321491808411,185.716
1321491868411,185.642
1321491928411,185.692
1321491988411,186.020
1321492048411,185.931
1321492108411,185.939
1321492168411,186.044
1321492228411,185.830
1321492288411,185.977
1321492348411,185.939
1321492408411,185.797
1321492468411,185.966
1321492528411,186.022
1321492588411,186.284
1321492648411,186.247
1321492708411,186.686
1321492768411,186.504
1321492828411,186.821
1321492888411,186.166
1321492948411,186.853
1321493008411,186.756
1321493068411,186.981
1321493128411,186.966
1321493188411,186.977
1321493248411,186.941
1321493308411,186.798
1321493368411,186.729
1321493428411,186.871
1321493488411,187.447
1321493548411,187.345
1321493608411,186.599
1321493668411,186.538
1321493728411,186.421
1321493788411,186.245
1321493848411,186.528
1321493908411,186.342
1321493968411,186.530
1321494028411,186.075
1321494088411,186.021
1321494148411,186.576
1321494208411,186.431
1321494268411,186.393
1321494328411,186.369
1321494388411,186.314
1321494448411,186.493
1321494508411,186.367
1321494568411,186.353
1321494628411,186.893
1321494688411,186.995
1321494748411,186.821
1321494808411,186.732
1321494868411,187.102
1321494928411,187.016
1321494988411,187.054
1321495048411,187.393
1321495108411,187.384
1321495168411,187.487
1321495228421,187.403
1321495288421,187.456
1321495348421,187.398
1321495408421,187.619
1321495468421,187.239
1321495528421,187.350
1321495588421,187.483
1321495648421,187.147
1321495708421,187.274
1321495768421,187.088
1321495828421,187.093
1321495888421,187.056
1321495948421,186.943
1321496008421,186.733
1321496068421,187.051
1321496128421,186.728
1321496188421,186.741
1321496248421,186.633
1321496308421,186.242
1321496368421,186.771
1321496428421,186.917
1321496488421,186.377
1321496548421,186.722
1321496608421,187.090
1321496668421,186.771
1321496728421,187.002
1321496788421,186.759
1321496848421,186.622
1321496908421,186.999
1321496968421,186.756
1321497028421,187.299
1321497088421,187.213
1321497148421,187.148
1321497208421,187.007
1321497268421,187.468
1321497328421,187.432
1321497388421,187.406
1321497448421,187.867
1321497508421,187.660
1321497568421,187.769
1321497628421,188.231
1321497688421,188.036
1321497748421,187.779
1321497808421,187.944
1321497868421,188.244
1321497928421,187.985
1321497988421,187.701
1321498048421,187.936
1321498108421,187.833
1321498168421,188.142
1321498228421,187.916
1321498288421,187.731
1321498348421,187.307
1321498408421,187.791
1321498468421,187.602
1321498528421,187.644
1321498588421,187.397
1321498648421,187.368
1321498708421,187.455
1321498768421,187.081
1321498828431,187.427
1321498888431,187.594
1321498948431,187.438
1321499008431,187.461
1321499068431,187.408
1321499128431,187.904
1321499188431,187.498
1321499248431,187.196
1321499308431,187.384
1321499368431,187.521
1321499428431,187.458
1321499488431,187.471
1321499548431,187.307
1321499608431,187.536
1321499668431,187.615
1321499728431,187.064
1321499788431,186.968
1321499848431,187.013
1321499908431,186.798
1321499968431,186.877
1321500028431,186.623
1321500088431,186.849
1321500148431,186.983
1321500208431,186.619
1321500268431,186.740
1321500328431,186.738
1321500388431,186.559
1321500448431,186.253
1321500508431,186.483
1321500568431,186.594
1321500628431,186.551
1321500688431,186.411
1321500748431,186.438
1321500808431,186.087
1321500868431,185.981
1321500928431,186.149
1321500988431,186.366
1321501048431,185.754
1321501108431,186.109
1321501168431,186.541
1321501228431,186.038
1321501288431,186.031
1321501348431,185.796
1321501408431,185.942
1321501468431,186.040
1321501528431,186.048
1321501588431,185.753
1321501648431,185.817
1321501708431,185.574
1321501768431,185.239
1321501828431,185.576
1321501888431,185.399
1321501948431,185.493
1321502008431,185.307
1321502068431,185.303
1321502128431,185.497
1321502188431,185.226
1321502248431,185.852
1321502308431,185.703
1321502368431,185.531
1321502428441,185.252
1321502488441,185.170
1321502548441,185.475
1321502608441,185.784
1321502668441,185.399
1321502728441,185.671
1321502788441,185.537
1321502848441,185.088
1321502908441,185.529
1321502968441,185.510
1321503028441,185.588
1321503088441,185.436
1321503148441,185.998
1321503208441,185.474
1321503268441,185.137
1321503328441,185.484
1321503388441,185.456
1321503448441,185.364
1321503508441,185.832
1321503568441,185.165
1321503628441,185.677
1321503688441,185.837
1321503748441,185.271
1321503808441,185.500
1321503868441,185.843
1321503928441,185.797
1321503988441,185.794
1321504048441,185.453
1321504108441,185.687
1321504168441,185.626
1321504228441,185.493
1321504288441,185.541
1321504348441,185.817
1321504408441,185.605
1321504468441,185.740
1321504528441,185.848
1321504588441,185.593
1321504648441,185.296
1321504708441,186.035
1321504768441,185.534
1321504828441,186.038
1321504888441,185.387
1321504948441,185.334
1321505008441,185.747
1321505068441,185.643
1321505128441,185.635
1321505188441,185.465
1321505248441,185.661
1321505308441,185.703
1321505368441,185.288
1321505428441,185.505
1321505488441,185.701
1321505548441,185.560
1321505608441,185.685
1321505668441,185.425
1321505728441,185.945
1321505788441,186.154
1321505848441,185.894
1321505908441,186.122
1321505968441,186.233
1321506028451,186.017
1321506088451,185.904
1321506148451,186.324
1321506208451,186.278
1321506268451,186.090
1321506328451,185.869
1321506388451,185.968
1321506448451,185.909
1321506508451,185.893
1321506568451,186.221
1321506628451,185.677
1321506688451,185.762
1321506748451,186.067
1321506808451,185.821
1321506868451,186.025
1321506928451,185.982
1321506988451,185.449
1321507048451,185.513
1321507108451,185.342
1321507168451,185.217
1321507228451,185.300
1321507288451,185.555
1321507348451,185.784
1321507408451,185.863
1321507468451,185.556
1321507528451,185.484
1321507588451,185.422
1321507648451,185.321
1321507708451,185.317
1321507768451,185.384
1321507828451,185.415
1321507888451,185.537
1321507948451,185.059
1321508008451,185.242
1321508068451,185.108
1321508128451,185.182
1321508188451,185.257
1321508248451,185.124
1321508308451,185.188
1321508368451,185.087
1321508428451,185.295
1321508488451,184.884
1321508548451,185.018
1321508608451,185.106
1321508668451,185.272
1321508728451,184.802
1321508788451,184.990
1321508848451,184.890
1321508908451,184.918
1321508968451,184.958
1321509028451,184.967
1321509088451,185.080
1321509148451,185.118
1321509208451,184.601
1321509268451,184.971
1321509328451,184.711
1321509388451,184.870
1321509448451,184.866
1321509508451,184.902
1321509568451,184.714
1321509628461,184.691
1321509688461,184.848
1321509748461,184.672
1321509808461,184.959
1321509868461,184.838
1321509928461,184.651
1321509988461,184.793
1321510048461,184.692
1321510108461,185.057
1321510168461,184.762
1321510228461,184.861
1321510288461,184.823
1321510348461,184.598
1321510408461,184.567
1321510468461,184.547
1321510528461,184.332
1321510588461,184.857
1321510648461,184.182
1321510708461,184.345
1321510768461,184.340
1321510828461,184.373
1321510888461,184.217
1321510948461,184.443
1321511008461,184.653
1321511068461,183.890
1321511128461,184.071
1321511188461,184.402
1321511248461,184.508
1321511308461,184.127
1321511368461,184.332
1321511428461,184.410
1321511488461,184.204
1321511548461,184.283
1321511608461,184.062
1321511668461,183.948
1321511728461,183.901
1321511788461,183.931
1321511848461,183.577
1321511908461,184.059
1321511968461,183.810
1321512028461,183.950
1321512088461,184.184
1321512148461,183.932
1321512208461,184.300
1321512268461,183.777
1321512328461,183.671
1321512388461,183.775
1321512448461,184.159
1321512508461,183.833
1321512568461,183.866
1321512628461,183.769
1321512688461,183.688
1321512748461,183.948
1321512808461,183.992
1321512868461,184.186
1321512928461,183.756
1321512988461,183.534
1321513048461,183.813
1321513108461,183.718
1321513168461,183.951
1321513228472,183.924
1321513288472,183.631
1321513348472,183.691
1321513408472,183.985
1321513468472,183.912
1321513528472,183.540
1321513588472,183.866
1321513648472,184.108
1321513708472,183.627
1321513768472,183.784
1321513828472,183.915
1321513888472,184.228
1321514428472,183.943
1321514488472,183.898
1321514548472,184.283
1321514608472,184.566
1321514668472,184.217
1321514728472,184.755
1321514788472,184.361
1321514848472,184.150
1321514908472,184.404
1321514968472,184.017
1321515028472,183.890
1321515088472,183.484
1321515148472,183.874
1321515208472,183.623
1321515268472,183.412
1321515328472,183.672
1321515388472,183.309
1321515448472,183.682
1321515508472,183.921
1321515568472,183.472
1321515628472,183.198
1321515688472,183.666
1321515748472,183.462
1321515808472,183.867
1321515868472,183.473
1321515928472,183.801
1321515988472,183.858
1321516048472,183.588
1321516108472,183.917
1321516168472,183.930
1321516228472,183.677
1321516288472,184.050
1321516348472,183.803
1321516408472,184.114
1321516468472,184.081
1321516528472,184.098
1321516588472,183.878
1321516648472,183.770
1321516708472,184.204
1321516768472,183.835
1321516828483,183.978
1321516888483,184.348
1321516948483,184.319
1321517008483,184.017
1321517068483,184.137
1321517128483,183.889
1321517188483,183.956
1321517248483,184.056
1321517308483,184.068
1321517368483,184.120
1321517428483,184.013
1321517488483,184.103
1321517548483,183.917
1321517608483,184.643
1321517668483,184.386
1321517728483,183.944
1321517788483,184.102
1321517848483,183.910
1321517908483,184.720
1321517968483,184.241
1321518028483,184.356
1321518088483,184.489
1321518148483,184.228
1321518208483,184.400
1321518268483,184.270
1321518328483,184.329
1321518388483,184.467
1321518448483,184.296
1321518508483,184.422
1321518568483,184.453
1321518628483,184.570
1321518688483,184.716
1321518748483,184.517
1321518808483,184.781
1321518868483,184.580
1321518928483,184.764
1321518988483,184.749
1321519048483,184.562
1321519108483,184.978
1321519168483,185.146
1321519228483,185.146
1321519288483,185.207
1321519348483,185.208
1321519408483,185.181
1321519468483,185.292
1321519528483,185.694
1321519588483,185.629
1321519648483,185.396
1321519708483,185.348
1321519768483,185.270
1321519828483,185.567
1321519888483,185.854
1321519948483,185.866
1321520008483,185.567
1321520068483,185.278
1321520128483,186.166
1321520188483,185.556
1321520248483,185.548
1321520308483,185.542
1321520368483,186.077
1321520428494,186.004
1321520488494,185.913
1321520548494,185.779
1321520608494,185.983
1321520668494,186.067
1321520728494,185.984
1321520788494,185.600
1321520848494,185.968
1321520908494,186.055
1321520968494,185.884
1321521028494,185.808
1321521088494,186.071
1321521148494,185.701
1321521208494,186.125
1321521268494,186.212
1321521328494,185.933
1321521388494,185.669
1321521448494,185.804
1321521508494,186.028
1321521568494,186.143
1321521628494,186.560
1321521688494,185.911
1321521748494,185.862
1321521808494,186.002
1321521868494,186.068
1321521928494,186.033
1321521988494,186.191
1321522048494,186.280
1321522108494,186.447
1321522168494,186.204
1321522228494,186.390
1321522288494,186.507
1321522348494,186.276
1321522408494,186.410
1321522468494,186.828
1321522528494,186.970
1321522588494,186.806
1321522648494,186.664
1321522708494,186.987
1321522768494,186.828
1321522828494,186.599
1321522888494,186.657
1321522948494,186.663
1321523008494,186.712
1321523068494,186.829
1321523128494,186.477
1321523188494,187.077
1321523248494,186.939
1321523308494,186.607
1321523368494,186.761
1321523428494,187.032
1321523488494,187.167
1321523548494,187.045
1321523608494,187.341
1321523668494,187.017
1321523728494,186.971
1321523788494,187.039
1321523848494,187.196
1321523908494,187.105
1321523968494,187.075
1321524028505,187.077
1321524088505,187.164
1321524148505,186.944
1321524208505,186.857
1321524268505,187.062
1321524328505,186.680
1321524388505,186.591
1321524448505,186.907
1321524508505,186.505
1321524568505,186.646
1321524628505,186.682
1321524688505,186.330
1321524748505,186.817
1321524808505,186.022
1321524868505,185.868
1321524928505,186.308
1321524988505,186.266
1321525048505,186.591
1321525108505,186.273
1321525168505,186.639
1321525228505,186.290
1321525288505,186.499
1321525348505,186.336
1321525408505,186.426
1321525468505,186.548
1321525528505,186.583
1321525588505,186.462
1321525648505,185.927
1321525708505,186.430
1321525768505,186.243
1321525828505,186.289
1321525888505,186.229
1321525948505,185.924
1321526008505,186.038
1321526068505,186.058
1321526128505,186.162
1321526188505,186.038
1321526248505,185.823
1321526308505,185.718
1321526368505,185.759
1321526428505,185.798
1321526488505,185.654
1321526548505,185.698
1321526608505,185.513
1321526668505,185.311
1321526728505,185.753
1321526788505,185.678
1321526848505,185.678
1321526908505,185.528
1321526968505,185.574
1321527028505,185.670
1321527088505,185.131
1321527148505,185.097
1321527208505,185.673
1321527268505,185.996
1321527328505,185.698
1321527388505,185.660
1321527448505,186.045
1321527508505,185.809
1321527568505,186.398
1321527628517,185.999
1321527688517,185.802
1321527748517,185.688
1321527808517,185.348
1321527868517,185.331
1321527928517,185.159
1321527988517,185.248
1321528048517,184.865
1321528108517,184.321
1321528168517,184.646
1321528228517,185.187
1321528288517,184.909
1321528348517,184.567
1321528408517,184.490
1321528468517,184.636
1321528528517,184.678
1321528588517,184.679
1321528648517,184.769
1321528708517,184.422
1321528768517,184.524
1321528828517,184.539
1321528888517,184.620
1321528948517,184.430
1321529008517,184.178
1321529068517,183.978
1321529128517,184.063
1321529188517,183.847
1321529248517,184.103
1321529308517,184.467
1321529368517,184.145
1321529428517,183.943
1321529488517,183.984
1321529548517,183.782
1321529608517,184.028
1321529668517,183.649
1321529728517,183.771
1321529788517,183.756
1321529848517,183.390
1321529908517,183.558
1321529968517,183.851
1321530028517,183.458
1321530088517,183.986
1321530148517,183.762
1321530208517,183.559
1321530268517,183.559
1321530328517,183.465
1321530388517,183.247
1321530448517,183.470
1321530508517,183.516
1321530568517,183.284
1321530628517,183.217
1321530688517,183.206
1321530748517,182.919
1321530808517,183.435
1321530868517,183.009
1321530928517,182.964
1321530988517,182.879
1321531048517,182.767
1321531108517,183.139
1321531168517,183.090
1321531228529,183.277
1321531288529,183.022
1321531348529,182.948
1321531408529,182.878
1321531468529,183.008
1321531528529,183.409
1321531588529,183.026
1321531648529,182.877
1321531708529,183.225
1321531768529,183.084
1321531828529,182.787
1321531888529,182.841
1321531948529,182.925
1321532008529,183.321
1321532068529,183.129
1321532128529,182.847
1321532188529,183.263
1321532248529,182.893
1321532308529,183.229
1321532368529,183.038
1321532428529,183.467
1321532488529,183.177
1321532548529,183.160
1321532608529,183.276
1321532668529,182.911
1321532728529,183.292
1321532788529,183.182
1321532848529,183.081
1321532908529,182.857
1321532968529,183.024
1321533028529,182.871
1321533088529,182.829
1321533148529,183.131
1321533208529,182.850
1321533268529,183.177
1321533328529,183.036
1321533388529,183.003
1321533448529,183.040
1321533508529,182.844
1321533568529,183.011
1321533628529,183.431
1321533688529,182.697
1321533748529,183.028
1321533808529,183.018
1321533868529,183.134
1321533928529,183.232
1321533988529,183.340
1321534048529,183.288
1321534108529,182.994
1321534168529,183.127
1321534228529,183.004
1321534288529,183.432
1321534348529,183.283
1321534408529,183.114
1321534468529,183.225
1321534528529,183.375
1321534588529,183.485
1321534648529,183.352
1321534708529,183.335
1321534768529,183.286
1321534828541,183.298
1321534888541,183.236
1321534948541,183.357
1321535008541,183.349
1321535068541,183.332
1321535128541,183.073
1321535188541,183.124
1321535248541,183.286
1321535308541,183.267
1321535368541,183.120
1321535428541,182.771
1321535488541,183.316
1321535548541,182.595
1321535608541,183.191
1321535668541,183.312
1321535728541,183.185
1321535788541,183.273
1321535848541,182.865
1321535908541,182.977
1321535968541,183.408
1321536028541,183.385
1321536088541,183.722
1321536148541,183.423
1321536208541,183.354
1321536268541,183.459
1321536328541,183.702
1321536388541,183.336
1321536448541,183.181
1321536508541,183.612
1321536568541,183.746
1321536628541,183.624
1321536688541,183.671
1321536748541,183.359
1321536808541,183.522
1321536868541,183.505
1321536928541,183.351
1321536988541,183.475
1321537048541,183.498
1321537108541,183.441
1321537168541,183.625
1321537228541,183.570
1321537288541,183.358
1321537348541,183.466
1321537408541,183.333
1321537468541,183.165
1321537528541,183.244
1321537588541,183.574
1321537648541,183.786
1321537708541,183.680
1321537768541,183.784
1321537828541,183.713
1321537888541,183.835
1321537948541,183.263
1321538008541,183.542
1321538068541,183.442
1321538128541,183.474
1321538188541,183.809
1321538248541,183.454
1321538308541,183.615
1321538368541,183.650
1321538428553,183.570
1321538488553,183.664
1321538548553,183.615
1321538608553,183.615
1321538668553,183.824
1321538728553,183.573
1321538788553,183.732
1321538848553,183.748
1321538908553,183.580
1321538968553,183.698
1321539028553,183.282
1321539088553,183.467
1321539148553,183.992
1321539208553,183.909
1321539268553,183.748
1321539328553,183.703
1321539388553,183.798
1321539448553,183.529
1321539508553,183.193
1321539568553,183.662
1321539628553,183.929
1321539688553,184.122
1321539748553,183.673
1321539808553,183.523
1321539868553,183.893
1321539928553,183.381
1321539988553,183.505
1321540048553,183.275
1321540108553,183.486
1321540168553,183.474
1321540228553,183.500
1321540288553,183.340
1321540348553,183.269
1321540408553,183.371
1321540468553,183.432
1321540528553,183.126
1321540588553,183.376
1321540648553,183.656
1321540708553,183.205
1321540768553,183.238
1321540828553,182.878
1321540888553,183.307
1321540948553,183.320
1321541008553,183.621
1321541068553,183.336
1321541128553,183.507
1321541188553,183.696
1321541248553,183.771
1321541308553,183.599
1321541368553,184.075
1321541428553,184.076
1321541488553,183.875
1321541548553,183.870
1321541608553,183.910
1321541668553,184.115
1321541728553,183.794
1321541788553,183.677
1321541848553,183.774
1321541908553,184.099
1321541968553,183.952
1321542028565,184.268
1321542088565,183.956
1321542148565,183.831
1321542208565,184.003
1321542268565,184.218
1321542328565,183.651
1321542388565,183.673
1321542448565,184.133
1321542508565,184.261
1321542568565,183.789
1321542628565,183.895
1321542688565,184.033
1321542748565,183.657
1321542808565,184.183
1321542868565,183.910
1321542928565,183.811
1321542988565,183.590
1321543048565,183.654
1321543108565,184.057
1321543168565,184.561
1321543228565,184.100
1321543288565,183.990
1321543348565,184.118
1321543408565,184.023
1321543468565,183.779
1321543528565,184.246
1321543588565,184.336
1321543648565,184.349
1321543708565,184.224
1321543768565,184.571
1321543828565,184.452
1321543888565,184.563
1321543948565,184.296
1321544008565,184.804
1321544068565,184.643
1321544128565,184.911
1321544188565,184.909
1321544248565,184.603
1321544308565,184.588
1321544368565,184.603
1321544428565,184.599
1321544488565,184.702
1321544548565,184.221
1321544608565,184.321
1321544668565,184.340
1321544728565,184.363
1321544788565,184.845
1321544848565,184.460
1321544908565,184.355
1321544968565,184.457
1321545028565,184.734
1321545088565,184.698
1321545148565,184.504
1321545208565,184.555
1321545268565,184.231
1321545328565,184.104
1321545388565,184.724
1321545448565,184.561
1321545508565,184.753
1321545568565,184.602
1321545628577,184.598
1321545688577,184.647
1321545748577,184.581
1321545808577,185.015
1321545868577,184.308
1321545928577,184.542
1321545988577,184.715
1321546048577,184.378
1321546108577,184.210
1321546168577,184.424
1321546228577,184.165
1321546288577,184.400
1321546348577,184.256
1321546408577,184.385
1321546468577,184.605
1321546528577,184.515
1321546588577,184.163
1321546648577,184.387
1321546708577,184.210
1321546768577,184.242
1321546828577,184.433
1321546888577,184.068
1321546948577,184.216
1321547008577,184.386
1321547068577,184.225
1321547128577,184.635
1321547188577,184.510
1321547248577,184.697
1321547308577,184.681
1321547368577,184.603
1321547428577,184.090
1321547488577,184.420
1321547548577,184.878
1321547608577,184.518
1321547668577,184.240
1321547728577,184.816
1321547788577,184.729
1321547848577,184.717
1321547908577,184.653
1321547968577,184.699
1321548028577,184.921
1321548088577,184.999
1321548148577,184.666
1321548208577,184.828
1321548268577,184.861
1321548328577,185.083
1321548388577,184.957
1321548448577,184.969
1321548508577,184.932
1321548568577,184.914
1321548628577,184.843
1321548688577,184.804
1321548748577,184.878
1321548808577,184.858
1321548868577,184.922
1321548928577,184.782
1321548988577,185.036
1321549048577,184.878
1321549108577,184.585
1321549168577,185.115
1321549228589,185.132
1321549288589,184.536
1321549348589,184.346
1321549408589,184.873
1321549468589,184.747
1321549528589,184.823
1321549588589,184.912
1321549648589,184.905
1321549708589,184.970
1321549768589,185.179
1321549828589,185.005
1321549888589,185.070
1321549948589,185.275
1321550008589,185.166
1321550068589,185.398
1321550128589,184.671
1321550188589,185.194
1321550248589,185.079
1321550308589,185.294
1321550368589,185.128
1321550428589,184.796
1321550488589,184.710
1321550548589,184.612
1321550608589,184.765
1321550668589,185.172
1321550728589,184.819
1321550788589,184.928
1321550848589,184.649
1321550908589,185.199
1321550968589,184.502
1321551028589,184.494
1321551088589,184.724
1321551148589,184.589
1321551208589,184.612
1321551268589,184.823
1321551328589,184.857
1321551388589,184.883
1321551448589,184.742
1321551508589,184.290
1321551568589,184.611
1321551628589,184.349
1321551688589,184.573
1321551748589,184.133
1321551808589,184.576
1321551868589,184.621
1321551928589,184.720
1321551988589,184.671
1321552048589,184.779
1321552108589,184.953
1321552168589,184.969
1321552228589,184.593
1321552288589,184.240
1321552348589,184.215
1321552408589,184.714
1321552468589,184.575
1321552528589,184.668
1321552588589,184.424
1321552648589,184.618
1321552708589,184.466
1321552768589,184.339
1321552828601,184.444
1321552888601,184.376
1321552948601,184.555
1321553008601,184.146
1321553068601,184.336
1321553128601,184.471
1321553188601,184.578
1321553248601,184.438
1321553308601,184.431
1321553368601,184.537
1321553428601,184.288
1321553488601,184.440
1321553548601,184.282
1321553608601,184.737
1321553668601,184.606
1321553728601,184.370
1321553788601,184.754
1321553848601,184.548